User: anonymous   Login
Location: Caltech
(34.1382°N, 118.1253°W)
Time: 04:53:16
(UTC-07:00)
Language:

Cosmos 676 Rocket - Orbit

View from above orbital plane
View from above orbital plane
View from above satellite
View from above satellite

Ground track
Ground track

The orbit data is extracted from the following two-line orbital elements,

1 07434U 74071B   15143.15713500  .00000050  00000-0  26025-4 0  9997
2 07434 074.0457 162.2703 0022078 260.3666 099.4993 14.36467769128148
Epoch (UTC): 23 May 2015 03:46:16
Eccentricity: 0.0022078
inclination: 74.0457°
perigee height: 754 km
apogee height: 786 km
right ascension of ascending node: 162.2703°
argument of perigee: 260.3666°
revolutions per day: 14.36467769
mean anomaly at epoch: 99.4993°
orbit number at epoch: 12814

The dashed part of the orbit path shows where the satellite is in the earth's shadow,  

DLR